#timestamp,LO_Frequency,Hit 
1501254015.5,286047012.9,N
1501254035.4,286047013.6,N
1501254055.2,286047012.5,N
1501254075.0,286047014.2,N
1501254075.9,286047014.2,N
1501254095.8,286047017.9,N
1501254115.6,286047020.1,N
1501254135.4,286047020.4,N
1501254155.2,286047023.2,N
1501254175.1,286047026.8,N
1501254176.0,286047026.8,N
1501254195.8,286047026.6,N
1501254215.6,286047026.8,N
1501254235.5,286047026.8,N
1501254255.3,286047026.2,N
1501254275.1,286047022.4,N
1501254295.9,286047024.7,N
1501254315.7,286047027.1,N
1501254335.5,286047028.8,N
1501254355.4,286047026.0,N
1501254375.2,286047027.5,N
1501254395.0,286047025.6,N
1501254395.9,286047025.6,N
1501254415.8,286047028.2,N
1501254435.6,286047029.5,N
1501254455.4,286047026.1,N
1501254475.3,286047023.8,N
1501254495.1,286047023.0,N
1501254496.0,286047023.0,N
1501254515.8,286047020.6,N
1501254535.6,286047022.6,N
1501254555.5,286047023.6,N
1501254575.3,286047020.5,N
1501254595.1,286047020.5,N
1501254615.9,286047020.9,N
1501254635.7,286047021.5,N
1501254655.5,286047020.5,N
1501254675.4,286047022.7,N
1501254695.2,286047019.3,N
1501254715.0,286047019.5,N
1501254715.9,286047019.5,N
1501254735.8,286047017.7,N
1501254755.6,286047021.5,N
1501254775.4,286047018.8,N
1501254795.3,286047017.4,N
1501254815.1,286047022.0,N
1501254816.0,286047022.0,N
1501254835.8,286047019.1,N
1501254855.7,286047020.1,N
1501254875.5,286047017.8,N
1501254895.3,286047019.9,N
1501254915.1,286047022.8,N
1501254935.9,286047026.8,N
1501254955.7,286047024.6,N
1501254975.5,286047026.8,N
1501254995.4,286047022.3,N
1501255015.2,286047023.4,N
1501255035.0,286047023.4,N
1501255035.9,286047023.4,N
1501255055.8,286047021.3,N
1501255075.6,286047019.5,N
1501255095.4,286047017.4,N
1501255115.3,286047017.9,N
1501255135.1,286047018.3,N
1501255136.0,286047018.3,N
1501255155.8,286047016.1,N
1501255175.7,286047016.1,N
1501255195.5,286047016.8,N
1501255215.3,286047017.2,N
1501255235.1,286047014.2,N
1501255255.9,286047015.4,N
1501255275.7,286047015.0,N
1501255295.5,286047017.0,N
1501255315.4,286047016.0,N
1501255335.2,286047016.6,N
1501255355.0,286047016.6,N
1501255355.9,286047016.6,N
1501255375.8,286047016.4,N
1501255395.6,286047017.6,N
1501255415.4,286047021.7,N
1501255435.3,286047017.7,N
1501255455.1,286047016.9,N
1501255456.0,286047016.9,N
1501255475.8,286047016.3,N
1501255495.7,286047016.0,N
1501255515.5,286047015.1,N
1501255535.3,286047014.8,N
1501255555.1,286047012.5,N
1501255575.9,286047015.1,N
1501255595.7,286047019.2,N
1501255615.5,286047018.0,N
1501255635.4,286047015.8,N
1501255655.2,286047021.6,N
1501255675.0,286047020.3,N
1501255675.9,286047020.3,N
1501255695.8,286047017.6,N
1501255715.6,286047020.8,N
1501255735.4,286047017.6,N
1501255755.3,286047016.2,N
1501255775.1,286047017.3,N
1501255776.0,286047017.3,N
1501255795.8,286047017.5,N
1501255815.6,286047018.7,N
1501255835.5,286047019.1,N
1501255855.3,286047019.5,N
1501255875.1,286047020.6,N
1501255895.9,286047019.0,N
1501255915.7,286047018.9,N
1501255935.5,286047023.2,N
1501255955.4,286047023.0,N
1501255975.2,286047019.0,N
1501255995.0,286047019.1,N
1501255995.9,286047019.1,N
1501256015.8,286047017.5,N
1501256035.6,286047019.8,N
1501256055.4,286047019.6,N
1501256075.3,286047020.7,N
1501256095.1,286047020.7,N
1501256096.0,286047020.7,N
1501256115.8,286047021.6,N
1501256135.7,286047020.4,N
1501256155.5,286047016.5,N
1501256175.3,286047016.2,N
1501256195.1,286047015.1,N
1501256215.9,286047009.7,N
1501256235.7,286047012.6,N
1501256255.5,286047014.5,N
1501256275.4,286047014.7,N
1501256295.2,286047011.6,N
1501256315.0,286047013.7,N
1501256315.9,286047013.7,N
1501256335.8,286047014.6,N
1501256355.6,286047013.9,N
1501256375.4,286047011.8,N
1501256395.3,286047015.5,N
1501256415.1,286047009.3,N
1501256416.0,286047009.3,N
1501256435.8,286047010.7,N
1501256455.7,286047008.1,N
1501256475.5,286047008.2,N
1501256495.3,286047009.2,N
1501256515.2,286047008.5,N
1501256535.9,286047008.5,N
1501256555.7,286047010.4,N
1501256575.5,286047006.7,N
1501256595.4,286047008.4,N
1501256615.2,286047010.1,N
1501256635.0,286047012.2,N
1501256635.9,286047012.2,N
1501256655.8,286047012.8,N
1501256675.6,286047013.3,N
1501256695.4,286047015.4,N
1501256715.3,286047009.8,N
1501256735.1,286047010.0,N
1501256755.8,286047006.7,N
1501256775.7,286047006.9,N
1501256795.5,286047008.2,N
1501256815.3,286047006.5,N
1501256835.2,286047007.8,N
1501256855.9,286047008.5,N
1501256875.7,286047006.5,N
1501256895.6,286047006.5,N
1501256915.4,286047008.1,N
1501256935.2,286047011.3,N
1501256955.0,286047011.6,N
1501256956.0,286047011.6,N
1501256975.8,286047012.5,N
1501256995.6,286047014.4,N
1501257015.4,286047016.6,N
1501257035.3,286047015.9,N
1501257055.1,286047020.4,N
1501257075.8,286047018.8,N
1501257095.7,286047018.0,N
1501257115.5,286047016.0,N
1501257135.3,286047016.7,N
1501257155.2,286047012.8,N
1501257175.9,286047012.9,N
1501257195.7,286047013.2,N
1501257215.6,286047014.6,N
1501257235.4,286047015.3,N
1501257255.2,286047013.6,N
1501257275.0,286047012.5,N
1501257276.0,286047012.5,N
1501257295.8,286047016.6,N
1501257315.6,286047017.2,N
1501257335.4,286047012.8,N
1501257355.3,286047013.7,N
1501257375.1,286047012.9,N
1501257395.8,286047011.5,N
1501257415.7,286047011.3,N
1501257435.5,286047011.4,N
1501257455.3,286047011.0,N
1501257475.2,286047013.3,N
1501257495.9,286047013.4,N
1501257515.7,286047014.8,N
1501257535.6,286047015.6,N
1501257555.4,286047015.5,N
1501257575.2,286047015.2,N
1501257595.0,286047018.4,N
1501257596.0,286047018.4,N
